User: anonymous   Login
Location: Unspecified
(0.0000°N, 0.0000°E)
Time: 00:23:44
(UTC+02:00)
Language:

Cosmos 1626 Rocket - Orbit

View from above orbital plane
View from above orbital plane
View from above satellite
View from above satellite

Ground track
Ground track

The orbit data is extracted from the following two-line orbital elements,

1 15495U 85009B   17114.90090379 +.00000153 +00000-0 +15439-4 0  9992
2 15495 082.5256 237.3723 0021118 142.6593 217.6095 14.83763462720973
Epoch (UTC): 24 April 2017 21:37:18
Eccentricity: 0.0021118
inclination: 82.5256°
perigee height: 603 km
apogee height: 632 km
right ascension of ascending node: 237.3723°
argument of perigee: 142.6593°
revolutions per day: 14.83763462
mean anomaly at epoch: 217.6095°
orbit number at epoch: 72097

The dashed part of the orbit path shows where the satellite is in the earth's shadow,  

DLR